Glendale Luke AFB, AZ

5:05 AM MST on November 17, 2019 (GMT -0700)
Luke Air Force Base

Weather History for KLUF - July, 2019

Change the Weather History Date:

Saturday, July 27, 2019

  Actual Average Record
Temperature  
Mean Temperature 100 °F -  
Max Temperature 111 °F 107 °F 114 °F (1998)
Min Temperature 90 °F 76 °F 66 °F (1941)
Cooling Degree Days 36    
Growing Degree Days 50 (Base 50)    
Moisture  
Dew Point 54 °F    
Average Humidity 20    
Maximum Humidity 35    
Minimum Humidity 12    
Precipitation  
Precipitation 0.00 in - - ()
Sea Level Pressure  
Sea Level Pressure 29.79 in    
Wind  
Wind Speed 7 mph (SW)    
Max Wind Speed 20 mph    
Max Gust Speed 24 mph    
Visibility 10 miles    
Events      
Averages and records for this station are not official NWS values.
T = Trace of Precipitation, MM = Missing Value Source: NWS Daily Summary

Daily Weather History Graph

Daily Weather History Graph

Search for Another Location

Airport or City:

Astronomy

Jul. 27, 2019 Rise Set
Actual Time 5:38 AM MST 7:33 PM MST
Civil Twilight 5:10 AM MST 8:00 PM MST
Nautical Twilight 4:37 AM MST 8:34 PM MST
Astronomical Twilight 4:01 AM MST 9:09 PM MST
Moon 1:23 AM MST (7/27) 3:29 PM MST (7/27)
Length of Visible Light 14h 50m
Length of Day
13h 55m
Waning Crescent, 23% of the Moon is Illuminated
Jul 27
Waning Crescent
Jul 31
New
Aug 7
First Quarter
Aug 15
Full
Aug 23
Last Quarter

Hourly Weather History & Observations

Time (MST) Temp. Heat Index Dew Point Humidity Pressure Visibility Wind Dir Wind Speed Gust Speed Precip Events Conditions
12:58 AM 97.5 °F 97.3 °F 58.8 °F 28% 29.82 in 10.0 mi SSW 3.5 mph - N/A   Clear
1:58 AM 96.1 °F 95.2 °F 57.6 °F 28% 29.81 in 10.0 mi SSW 4.6 mph - N/A   Clear
2:58 AM 93.2 °F 92.6 °F 58.8 °F 32% 29.81 in 10.0 mi Calm Calm - N/A   Clear
3:58 AM 91.6 °F 91.0 °F 59.2 °F 34% 29.82 in 10.0 mi Calm Calm - N/A   Clear
5:58 AM 90.7 °F 90.1 °F 59.2 °F 35% 29.85 in 10.0 mi SW 4.6 mph - N/A   Clear
8:58 AM 98.2 °F 98.4 °F 59.5 °F 28% 29.88 in 10.0 mi West 8.1 mph - N/A   Clear
9:58 AM 100.8 °F 101.3 °F 59.5 °F 26% 29.87 in 10.0 mi SW 6.9 mph - N/A   Clear
10:58 AM 103.6 °F 104.7 °F 59.7 °F 24% 29.86 in 10.0 mi SW 8.1 mph - N/A   Partly Cloudy
11:43 AM 105.8 °F 105.5 °F 57.2 °F 20% 29.85 in 10.0 mi SW 6.9 mph - N/A   Light Drizzle
11:52 AM 105.8 °F 105.5 °F 57.2 °F 20% 29.85 in 10.0 mi WSW 4.6 mph - N/A   Partly Cloudy
11:58 AM 105.6 °F 105.9 °F 57.6 °F 21% 29.84 in 10.0 mi South 6.9 mph - 0.00 in   Partly Cloudy
12:58 PM 109.0 °F 108.1 °F 54.5 °F 17% 29.82 in 10.0 mi South 11.5 mph 19.6 mph N/A   Scattered Clouds
1:58 PM 109.8 °F 108.4 °F 53.4 °F 16% 29.79 in 10.0 mi SW 15.0 mph 23.0 mph N/A   Clear
2:34 PM 111.2 °F - 51.8 °F 14% 29.77 in 10.0 mi SW 19.6 mph 24.2 mph N/A   Clear
2:58 PM 110.1 °F - 52.0 °F 15% 29.76 in 10.0 mi WSW 9.2 mph - N/A   Partly Cloudy
3:58 PM 111.7 °F - 47.1 °F 12% 29.74 in 10.0 mi WSW 13.8 mph 19.6 mph N/A   Clear
4:18 PM 111.2 °F - 48.2 °F 12% 29.73 in 10.0 mi WSW 18.4 mph 21.9 mph N/A   Clear
4:28 PM 111.2 °F - 48.2 °F 12% 29.72 in 10.0 mi SSW 17.3 mph - N/A   Clear
4:37 PM 111.2 °F - 46.4 °F 12% 29.72 in 10.0 mi WSW 17.3 mph 24.2 mph N/A   Clear
4:49 PM 111.2 °F - 46.4 °F 12% 29.71 in 10.0 mi WNW 13.8 mph 24.2 mph N/A   Clear
4:58 PM 111.7 °F - 47.1 °F 12% 29.71 in 10.0 mi WSW 9.2 mph 24.2 mph N/A   Clear
5:58 PM 110.8 °F - 46.6 °F 12% 29.70 in 10.0 mi SW 6.9 mph 18.4 mph N/A   Clear
6:58 PM 109.2 °F - 49.5 °F 14% 29.70 in 10.0 mi WSW 11.5 mph - N/A   Clear
7:58 PM 106.0 °F - 50.4 °F 16% 29.72 in 10.0 mi SW 11.5 mph - N/A   Clear